User: anonymous   Login
Location: Bear Valley Community Church - Hurst
(32.8460°N, 97.1828°W)
Time: 07:52:48
(UTC+00:00)
Language:

Nadezhda 4 Rocket - Orbit

View from above orbital plane
View from above orbital plane
View from above satellite
View from above satellite

Ground track
Ground track

The orbit data is extracted from the following two-line orbital elements,

1 23180U 94041B   22148.74022647  .00000052  00000-0  36562-4 0  9994
2 23180  82.9486  26.6864 0028445 196.6059 225.7528 13.78045172401299
Epoch (UTC): 28 May 2022 17:45:55
Eccentricity: 0.0028445
inclination: 82.9486°
perigee height: 950 km
apogee height: 992 km
right ascension of ascending node: 26.6864°
argument of perigee: 196.6059°
revolutions per day: 13.78045172
mean anomaly at epoch: 225.7528°
orbit number at epoch: 40129

The dashed part of the orbit path shows where the satellite is in the earth's shadow,  

DLR